Tracking 19176 objects as of 26-May-2018
HD Live streaming from Space Station
objects crossing your sky now

NOAA 16 DEB

Track NOAA 16 DEB now!
10-day predictions


NORAD ID: 41506
Int'l Code: 2000-055ME
Perigee: 771.5 km
Apogee: 849.5 km
Inclination: 98.8 °
Period: 100.9 minutes
Semi major axis: 7181 km
RCS: Unknown
Launch date: September 21, 2000
Source: United States (US)
Launch site: AIR FORCE WESTERN TEST RANGE (AFWTR)

Note: This is SATELLITE DEBRIS
aabbcc
Your satellite tracking list
Your tracking list is empty




NASA's NSSDC Master Catalog

Two Line Element Set (TLE):
1 41506U 00055ME  18145.47484742 +.00001341 +00000-0 +56635-3 0  9992
2 41506 098.7983 230.9437 0054316 335.7334 024.1289 14.26525893122508
Source of the keplerian elements: AFSPC